Location: Chillicothe
(39.7950°N, 93.5520°W)
Time: 04:45:27
(UTC-06:00)

Explorer 11/Cluster Stage 4 - Pass Details

Date: 28 October 2019
Orbit: 467 x 1259 km, 28.8° (Epoch: 17 November)

Event Time Altitude Azimuth Distance (km) Brightness Sun altitude
Rises 07:14:35 0° 235° (SW) 3,200 9.3 -5.2°
Reaches altitude 10° 07:17:57 10° 217° (SW) 2,108 8.6 -4.6°
Maximum altitude 07:21:09 18° 175° (S) 1,525 8.3 -4.0°
Drops below altitude 10° 07:24:00 10° 132° (SE) 1,840 9.7 -3.5°
Sets 07:26:40 0° 112° (ESE) 2,633 11.9 -3.0°
